Portada
METAR-TAF:

METAR-TAF

Aeroports :

Abumusa, Iran

latitud: 25-52-33N, longitud: 055-02-01E, altitud: 7 m

Observació

L'informe es va fer fa 49 minuts, a les 08:00 UTC
Vent 4 kt del Sud-Oest
Temperatura 36°C
Humitat 57%
Pressió 1003 hPa
Visibilitat: 5000 m
calitja

METAR: OIBA 020800Z 23004KT 5000 HZ NSC 36/26 Q1003

Hora: 13:19 (08:49 UTC)


TAF: manca

Observacions i pronòstics meteorològics de més de 4000 aeroports (METAR i TAF).

Les estacions disponibles són els punts grocs i vermells al mapa.

Posi el ratolí al punt desitjat per veure el nom de l'estació.

Feu clic per veure les observacions i els pronòstics meteorològics.

Per canviar el mapa: feu clic els botons verds amb una creu de color negre per apropar; al botó verd amb un guió per allunyar la imatge; o en les fletxes verdes per a mapes adjacents.


METAR-TAF: